Вернуться в каталог

CZ-6A DEB

АктивенPO
NORAD 56238·DEBRIS·🇨🇳 China

Запущен Nov 11, 2022 с Taiyuan Satellite Launch Center

Loading…

Ближайшие Пролёты (ближайшие 24 часа)

TLE

СвежийSource: Space-Track

Эпоха: Sep 14, 2026, 13:09 UTC

1 56238U 22151ABE 26257.54843395  .00000171  00000-0  20390-3 0  9994
2 56238  98.9051 167.3679 0245311 344.3431  15.0224 13.67458082174117

Отслеживайте CZ-6A DEB в реальном времени с AllMySat

Download on the App Store